This is the latest recevied weather packets stored in our database for station/object KK7KRZ. If no packets are shown the sender has not sent any weather packets the latest 10 day(s).
| Time | Temp. | Humidity | Pressure | Rain* | Wind** | Luminosity | Snow |
|---|---|---|---|---|---|---|---|
| 1778014046 | 16.67° C | 77% | 1016.3 hPa | 0 mm | - | 156 W/m² | - |
| 1778013744 | 16.67° C | 76% | 1016.2 hPa | 0 mm | - | 155 W/m² | - |
| 1778013441 | 16.67° C | 76% | 1016.1 hPa | 0 mm | - | 161 W/m² | - |
| 1778013138 | 16.67° C | 74% | 1016.4 hPa | 0 mm | - | 157 W/m² | - |
| 1778012833 | 16.67° C | 74% | 1016.4 hPa | 0 mm | - | 157 W/m² | - |
| 1778012530 | 17.22° C | 74% | 1016.5 hPa | 0 mm | - | 178 W/m² | - |
| 1778012226 | 16.67° C | 75% | 1016.4 hPa | 0 mm | - | 189 W/m² | - |
| 1778011924 | 16.67° C | 76% | 1016.3 hPa | 0 mm | - | 177 W/m² | - |
| 1778011622 | 16.67° C | 74% | 1016.3 hPa | 0 mm | - | 177 W/m² | - |
| 1778011319 | 16.11° C | 75% | 1016.3 hPa | 0 mm | - | 180 W/m² | - |
| 1778011014 | 16.11° C | 74% | 1016.7 hPa | 0 mm | - | 177 W/m² | - |
| 1778010712 | 16.11° C | 77% | 1016.3 hPa | 0 mm | - | 175 W/m² | - |
| 1778010409 | 16.11° C | 77% | 1016.5 hPa | 0 mm | - | 165 W/m² | - |
| 1778010105 | 16.11° C | 77% | 1016.7 hPa | 0 mm | - | 153 W/m² | - |
| 1778009802 | 16.11° C | 77% | 1016.5 hPa | 0 mm | - | 157 W/m² | - |
| 1778009499 | 15.56° C | 77% | 1016.2 hPa | 0 mm | - | 155 W/m² | - |
| 1778009198 | 15.56° C | 77% | 1016.6 hPa | 0 mm | - | 141 W/m² | - |
| 1778008895 | 15.56° C | 78% | 1016.5 hPa | 0 mm | - | 135 W/m² | - |
| 1778008593 | 15.56° C | 79% | 1016.5 hPa | 0 mm | - | 127 W/m² | - |
| 1778008291 | 15° C | 79% | 1016.6 hPa | 0 mm | - | 122 W/m² | - |
| 1778007987 | 15° C | 79% | 1016.5 hPa | 0 mm | - | 124 W/m² | - |
| 1778007681 | 15° C | 79% | 1016.6 hPa | 0 mm | - | 125 W/m² | - |
| 1778007379 | 15° C | 79% | 1016.6 hPa | 0 mm | - | 123 W/m² | - |
| 1778007075 | 15° C | 78% | 1016.4 hPa | 0 mm | - | 122 W/m² | - |
| 1778006771 | 15° C | 79% | 1016.6 hPa | 0 mm | - | 121 W/m² | - |
* Rain latest hour (hover to see other rain measurements)
** Current wind speed in m/s (hover to see current wind gust speed)